This is the latest recevied weather packets stored in our database for station/object YO3FVR-13. If no packets are shown the sender has not sent any weather packets the latest 10 day(s).
| Time | Temp. | Humidity | Pressure | Rain* | Wind** | Luminosity | Snow |
|---|---|---|---|---|---|---|---|
| 1778316024 | 15.56° C | 99% | 1012.7 hPa | 0 mm | - | - | - |
| 1778315094 | 15.56° C | 99% | 1012.4 hPa | 0 mm | - | - | - |
| 1778314164 | 15° C | 99% | 1012.8 hPa | 0 mm | - | - | - |
| 1778313234 | 15° C | 99% | 1012.9 hPa | 0 mm | - | - | - |
| 1778312334 | 14.44° C | 99% | 1012.7 hPa | 0 mm | - | - | - |
| 1778311434 | 14.44° C | 99% | 1012.7 hPa | 0 mm | - | - | - |
| 1778310504 | 13.89° C | 99% | 1012.9 hPa | 0 mm | - | - | - |
| 1778309574 | 13.33° C | 99% | 1012.5 hPa | 0 mm | - | - | - |
| 1778308644 | 13.33° C | 99% | 1012.8 hPa | 0 mm | - | - | - |
| 1778307743 | 13.33° C | 99% | 1012.6 hPa | 0 mm | - | - | - |
| 1778306843 | 13.33° C | 99% | 1012.6 hPa | 0 mm | - | - | - |
| 1778305943 | 13.33° C | 99% | 1012.5 hPa | 0 mm | - | - | - |
| 1778305013 | 13.33° C | 99% | 1012.5 hPa | 0 mm | - | - | - |
| 1778304083 | 13.33° C | 99% | 1012.5 hPa | 0 mm | - | - | - |
| 1778303153 | 12.78° C | 99% | 1012.4 hPa | 0 mm | - | - | - |
| 1778302223 | 12.78° C | 99% | 1012.2 hPa | 0 mm | - | - | - |
| 1778301323 | 12.78° C | 99% | 1012.4 hPa | 0 mm | - | - | - |
| 1778300393 | 12.22° C | 99% | 1012.5 hPa | 0 mm | - | - | - |
| 1778299463 | 12.22° C | 99% | 1012.5 hPa | 0 mm | - | - | - |
| 1778298563 | 12.22° C | 99% | 1012.4 hPa | 0 mm | - | - | - |
| 1778297633 | 12.22° C | 99% | 1012.3 hPa | 0 mm | - | - | - |
| 1778296703 | 12.22° C | 99% | 1012.2 hPa | 0 mm | - | - | - |
| 1778295773 | 11.67° C | 99% | 1012.3 hPa | 0 mm | - | - | - |
| 1778294873 | 11.67° C | 99% | 1012.3 hPa | 0 mm | - | - | - |
| 1778293973 | 12.22° C | 99% | 1012 hPa | 0 mm | - | - | - |
* Rain latest hour (hover to see other rain measurements)
** Current wind speed in m/s (hover to see current wind gust speed)